| time (UTC) | temp F | wind direction | speed knots | gust knots | rain 1hr in | rain 24hr in | rain mn in | humidity % | barometer mb |
| 20260506211555 | 84 | 167 | 3.5 | 7.8 | 0.00 | 0.00 | 0.00 | 28 | 1013.4 |
| 20260506210554 | 84 | 166 | 3.5 | 7.0 | 0.00 | 0.00 | 0.00 | 29 | 1013.5 |
| 20260506205534 | 83 | 162 | 5.2 | 9.6 | 0.00 | 0.00 | 0.00 | 31 | 1013.6 |
| 20260506204534 | 83 | 141 | 6.1 | 9.6 | 0.00 | 0.00 | 0.00 | 30 | 1013.6 |
| 20260506203534 | 83 | 134 | 6.1 | 7.8 | 0.00 | 0.00 | 0.00 | 30 | 1013.4 |
| 20260506202534 | 82 | 158 | 5.2 | 7.0 | 0.00 | 0.00 | 0.00 | 31 | 1013.5 |
| 20260506201534 | 81 | 133 | 4.3 | 7.0 | 0.00 | 0.00 | 0.00 | 32 | 1013.4 |
| 20260506200533 | 81 | 133 | 5.2 | 7.0 | 0.00 | 0.00 | 0.00 | 32 | 1013.5 |
| 20260506195533 | 81 | 158 | 6.1 | 7.8 | 0.00 | 0.00 | 0.00 | 32 | 1013.6 |
| 20260506194534 | 81 | 150 | 6.1 | 7.0 | 0.00 | 0.00 | 0.00 | 32 | 1014.9 |
| 20260506193533 | 81 | 154 | 5.2 | 7.8 | 0.00 | 0.00 | 0.00 | 32 | 1014.9 |
| 20260506192533 | 79 | 141 | 3.5 | 5.2 | 0.00 | 0.00 | 0.00 | 38 | 1014.9 |
| 20260506191534 | 77 | 140 | 1.7 | 3.5 | 0.00 | 0.00 | 0.00 | 38 | 1014.8 |
| 20260506190533 | 75 | 137 | 1.7 | 3.5 | 0.00 | 0.00 | 0.00 | 39 | 1014.7 |
| 20260506185533 | 75 | 155 | 1.7 | 3.5 | 0.00 | 0.00 | 0.00 | 38 | 1014.7 |
| 20260506184553 | 74 | 153 | 1.7 | 4.3 | 0.00 | 0.00 | 0.00 | 38 | 1014.7 |
| 20260506183533 | 74 | 162 | 1.7 | 3.5 | 0.00 | 0.00 | 0.00 | 38 | 1014.8 |
| 20260506182533 | 74 | 147 | 2.6 | 3.5 | 0.00 | 0.00 | 0.00 | 38 | 1015.9 |
| 20260506181533 | 74 | 115 | 2.6 | 4.3 | 0.00 | 0.00 | 0.00 | 38 | 1015.8 |
| 20260506180532 | 73 | 136 | 2.6 | 5.2 | 0.00 | 0.00 | 0.00 | 39 | 1015.9 |
| 20260506175532 | 73 | 137 | 2.6 | 4.3 | 0.00 | 0.00 | 0.00 | 40 | 1015.9 |
| 20260506174533 | 73 | 144 | 2.6 | 3.5 | 0.00 | 0.00 | 0.00 | 39 | 1016.0 |
| 20260506173532 | 71 | 140 | 2.6 | 3.5 | 0.00 | 0.00 | 0.00 | 41 | 1015.9 |
| 20260506172533 | 72 | 137 | 2.6 | 4.3 | 0.00 | 0.00 | 0.00 | 40 | 1015.9 |
| 20260506171532 | 74 | 155 | 2.6 | 3.5 | 0.00 | 0.00 | 0.00 | 39 | 1016.0 |
| 20260506170551 | 72 | 139 | 1.7 | 3.5 | 0.00 | 0.00 | 0.00 | 42 | 1015.9 |
| 20260506165532 | 71 | 140 | 2.6 | 3.5 | 0.00 | 0.00 | 0.00 | 42 | 1015.7 |
| 20260506164533 | 69 | 117 | 2.6 | 3.5 | 0.00 | 0.00 | 0.00 | 43 | 1015.7 |
| 20260506163532 | 70 | 152 | 1.7 | 2.6 | 0.00 | 0.00 | 0.00 | 44 | 1015.6 |
| 20260506162532 | 69 | 157 | 1.7 | 3.5 | 0.00 | 0.00 | 0.00 | 44 | 1016.7 |
| 20260506161532 | 67 | 138 | 2.6 | 3.5 | 0.00 | 0.00 | 0.00 | 45 | 1016.6 |
| 20260506160532 | 67 | 132 | 2.6 | 2.6 | 0.00 | 0.00 | 0.00 | 45 | 1016.6 |
| 20260506155552 | 68 | 153 | 2.6 | 3.5 | 0.00 | 0.00 | 0.00 | 44 | 1016.8 |
| 20260506154532 | 67 | 136 | 1.7 | 2.6 | 0.00 | 0.00 | 0.00 | 45 | 1016.7 |
| 20260506153532 | 66 | 127 | 1.7 | 4.3 | 0.00 | 0.00 | 0.00 | 46 | 1016.7 |
| 20260506152532 | 66 | 141 | 2.6 | 3.5 | 0.00 | 0.00 | 0.00 | 47 | 1016.8 |
| 20260506151532 | 64 | 133 | 2.6 | 3.5 | 0.00 | 0.00 | 0.00 | 48 | 1016.7 |
| 20260506150532 | 62 | 169 | 0.9 | 2.6 | 0.00 | 0.00 | 0.00 | 51 | 1016.6 |
| 20260506145552 | 60 | 343 | 0.9 | 2.6 | 0.00 | 0.00 | 0.00 | 52 | 1016.5 |
| 20260506144552 | 60 | 159 | 0.0 | 1.7 | 0.00 | 0.00 | 0.00 | 53 | 1016.8 |
| 20260506143552 | 58 | 169 | 0.9 | 2.6 | 0.00 | 0.00 | 0.00 | 56 | 1016.7 |
| 20260506142532 | 58 | 149 | 1.7 | 2.6 | 0.00 | 0.00 | 0.00 | 59 | 1016.7 |
| 20260506141532 | 57 | 163 | 0.9 | 2.6 | 0.00 | 0.00 | 0.00 | 61 | 1016.7 |
| 20260506140612 | 55 | 0.0 | 0.0 | 0.00 | 0.00 | 0.00 | 65 | 1016.6 | |
| 20260506135532 | 54 | 158 | 0.9 | 1.7 | 0.00 | 0.00 | 0.00 | 71 | 1016.6 |
| 20260506134532 | 53 | 0.0 | 0.0 | 0.00 | 0.00 | 0.00 | 75 | 1016.6 | |
| 20260506133532 | 53 | 0.0 | 0.0 | 0.00 | 0.00 | 0.00 | 76 | 1016.6 | |
| 20260506132532 | 53 | 0.0 | 0.0 | 0.00 | 0.00 | 0.00 | 74 | 1016.6 | |
| 20260506131612 | 53 | 0.0 | 0.0 | 0.00 | 0.00 | 0.00 | 73 | 1016.6 | |
| 20260506130532 | 52 | 180 | 0.0 | 1.7 | 0.00 | 0.00 | 0.00 | 74 | 1016.7 |
| 20260506125552 | 52 | 251 | 0.9 | 2.6 | 0.00 | 0.00 | 0.00 | 74 | 1016.7 |
| 20260506124532 | 52 | 0.0 | 0.0 | 0.00 | 0.00 | 0.00 | 73 | 1016.7 | |
| 20260506123532 | 53 | 0.0 | 0.0 | 0.00 | 0.00 | 0.00 | 72 | 1016.7 | |
| 20260506122532 | 52 | 0.0 | 0.0 | 0.00 | 0.00 | 0.00 | 72 | 1016.7 | |
| 20260506121532 | 53 | 0.0 | 0.0 | 0.00 | 0.00 | 0.00 | 71 | 1016.7 | |
| 20260506120532 | 53 | 0.0 | 0.0 | 0.00 | 0.00 | 0.00 | 70 | 1016.7 | |
| 20260506115532 | 53 | 0.0 | 0.0 | 0.00 | 0.00 | 0.00 | 70 | 1015.6 | |
| 20260506114532 | 53 | 205 | 0.9 | 1.7 | 0.00 | 0.00 | 0.00 | 70 | 1015.6 |
| 20260506113532 | 54 | 0.0 | 0.0 | 0.00 | 0.00 | 0.00 | 69 | 1015.7 | |
| 20260506112532 | 54 | 0.0 | 0.0 | 0.00 | 0.00 | 0.00 | 69 | 1015.7 | |
| 20260506111532 | 54 | 0.0 | 0.0 | 0.00 | 0.00 | 0.00 | 68 | 1015.7 | |
| 20260506110532 | 54 | 246 | 1.7 | 1.7 | 0.00 | 0.00 | 0.00 | 69 | 1015.7 |
| 20260506105532 | 54 | 0.0 | 0.0 | 0.00 | 0.00 | 0.00 | 69 | 1015.7 | |
| 20260506104532 | 55 | 0.0 | 0.0 | 0.00 | 0.00 | 0.00 | 67 | 1014.6 | |
| 20260506103533 | 55 | 0.0 | 0.0 | 0.00 | 0.00 | 0.00 | 66 | ||
| 20260506061532 | 64 | 272 | 3.5 | 5.2 | 0.00 | 0.00 | 0.00 | 40 | 1014.4 |
| 20260506060531 | 64 | 265 | 2.6 | 5.2 | 0.00 | 0.00 | 0.00 | 39 | 1014.3 |
| 20260506050531 | 65 | 279 | 3.5 | 4.3 | 0.00 | 0.00 | 0.00 | 39 | 1014.2 |
| 20260506044532 | 64 | 260 | 2.6 | 3.5 | 0.00 | 0.00 | 0.00 | 41 | 1014.0 |
| 20260506043532 | 63 | 262 | 1.7 | 4.3 | 0.00 | 0.00 | 0.00 | 42 | 1013.9 |
| 20260506042611 | 65 | 259 | 0.9 | 1.7 | 0.00 | 0.00 | 0.00 | 42 | 1013.8 |
| 20260506041532 | 65 | 276 | 2.6 | 4.3 | 0.00 | 0.00 | 0.00 | 39 | 1013.8 |
| 20260506040531 | 64 | 277 | 2.6 | 3.5 | 0.00 | 0.00 | 0.00 | 43 | 1012.7 |
| 20260506035532 | 64 | 238 | 1.7 | 2.6 | 0.00 | 0.00 | 0.00 | 43 | 1012.6 |
| 20260506034531 | 65 | 262 | 1.7 | 2.6 | 0.00 | 0.00 | 0.00 | 43 | 1012.4 |
| 20260506033533 | 65 | 267 | 1.7 | 2.6 | 0.00 | 0.00 | 0.00 | 43 | 1012.4 |
| 20260506032532 | 66 | 256 | 1.7 | 2.6 | 0.00 | 0.00 | 0.00 | 42 | 1012.4 |
| 20260506031532 | 67 | 238 | 1.7 | 1.7 | 0.00 | 0.00 | 0.00 | 40 | 1012.3 |
| 20260506030532 | 68 | 270 | 1.7 | 2.6 | 0.00 | 0.00 | 0.00 | 39 | 1012.2 |
| 20260506025532 | 69 | 236 | 1.7 | 1.7 | 0.00 | 0.00 | 0.00 | 38 | 1012.4 |
| 20260506024531 | 70 | 246 | 1.7 | 2.6 | 0.00 | 0.00 | 0.00 | 37 | 1012.3 |
| 20260506023532 | 72 | 0.0 | 0.0 | 0.00 | 0.00 | 0.00 | 35 | 1012.3 | |
| 20260506022531 | 73 | 0.0 | 0.0 | 0.00 | 0.00 | 0.00 | 32 | 1012.3 | |
| 20260506021532 | 74 | 0.0 | 0.0 | 0.00 | 0.00 | 0.00 | 29 | 1012.4 | |
| 20260506020531 | 75 | 0.0 | 0.0 | 0.00 | 0.00 | 0.00 | 28 | 1012.3 | |
| 20260506015533 | 76 | 0.0 | 0.0 | 0.00 | 0.00 | 0.00 | 27 | 1012.3 | |
| 20260506014531 | 77 | 0.0 | 0.0 | 0.00 | 0.00 | 0.00 | 26 | 1012.5 | |
| 20260506013553 | 77 | 147 | 1.7 | 4.3 | 0.00 | 0.00 | 0.00 | 24 | 1012.5 |
| 20260506012531 | 78 | 192 | 0.9 | 2.6 | 0.00 | 0.00 | 0.00 | 25 | 1012.5 |
| 20260506011532 | 78 | 139 | 1.7 | 3.5 | 0.00 | 0.00 | 0.00 | 24 | 1012.6 |
| 20260506010531 | 78 | 145 | 2.6 | 5.2 | 0.00 | 0.00 | 0.00 | 24 | 1013.5 |
| 20260506005532 | 79 | 203 | 0.9 | 2.6 | 0.00 | 0.00 | 0.00 | 24 | 1013.6 |
| 20260506004532 | 79 | 133 | 2.6 | 5.2 | 0.00 | 0.00 | 0.00 | 24 | 1013.6 |
| 20260506003553 | 80 | 263 | 1.7 | 3.5 | 0.00 | 0.00 | 0.00 | 24 | 1013.6 |
| 20260506002611 | 80 | 155 | 2.6 | 4.3 | 0.00 | 0.00 | 0.00 | 23 | 1013.7 |
| 20260506001552 | 81 | 137 | 3.5 | 5.2 | 0.00 | 0.00 | 0.00 | 22 | 1013.8 |
| 20260506000530 | 83 | 181 | 2.6 | 5.2 | 0.00 | 0.00 | 0.00 | 22 | 1013.9 |
| 20260505235533 | 82 | 151 | 2.6 | 5.2 | 0.00 | 0.00 | 0.00 | 23 | 1013.8 |
| 20260505234530 | 81 | 167 | 2.6 | 4.3 | 0.00 | 0.00 | 0.00 | 23 | 1013.8 |
| 20260505233533 | 81 | 124 | 3.5 | 4.3 | 0.00 | 0.00 | 0.00 | 23 | 1013.8 |
| 20260505232530 | 82 | 140 | 3.5 | 5.2 | 0.00 | 0.00 | 0.00 | 23 | 1013.8 |
| 20260505231533 | 82 | 147 | 2.6 | 4.3 | 0.00 | 0.00 | 0.00 | 23 | 1013.9 |
| 20260505230530 | 82 | 161 | 2.6 | 5.2 | 0.00 | 0.00 | 0.00 | 22 | 1015.0 |
| 20260505225530 | 81 | 158 | 2.6 | 4.3 | 0.00 | 0.00 | 0.00 | 23 | 1014.9 |
| 20260505224529 | 82 | 148 | 3.5 | 6.1 | 0.00 | 0.00 | 0.00 | 22 | 1015.0 |
| 20260505223529 | 82 | 141 | 3.5 | 5.2 | 0.00 | 0.00 | 0.00 | 23 | 1014.9 |
| 20260505222529 | 81 | 141 | 3.5 | 5.2 | 0.00 | 0.00 | 0.00 | 23 | 1014.9 |
| 20260505221529 | 82 | 138 | 3.5 | 5.2 | 0.00 | 0.00 | 0.00 | 23 | 1014.9 |
| 20260505220529 | 82 | 148 | 2.6 | 6.1 | 0.00 | 0.00 | 0.00 | 23 | 1015.0 |
| 20260505215530 | 82 | 146 | 4.3 | 5.2 | 0.00 | 0.00 | 0.00 | 23 | 1015.0 |
| 20260505214529 | 81 | 148 | 2.6 | 4.3 | 0.00 | 0.00 | 0.00 | 23 | 1015.1 |
| 20260505213530 | 81 | 171 | 3.5 | 7.8 | 0.00 | 0.00 | 0.00 | 23 | 1016.2 |
| 20260505212549 | 80 | 154 | 3.5 | 5.2 | 0.00 | 0.00 | 0.00 | 24 | 1016.2 |